TimeCST,TemperatureF,Dew PointF,Humidity,Sea Level PressureIn,VisibilityMPH,Wind Direction,Wind SpeedMPH,Gust SpeedMPH,PrecipitationIn,Events,Conditions,WindDirDegrees,DateUTC
12:15 AM,36.0,32.9,89,30.01,10.0,SE,9.2,16.1,N/A,,Light Drizzle,140,2013-02-07 06:15:00
12:35 AM,36.5,32.4,85,30.00,10.0,SE,9.2,-,N/A,,Overcast,140,2013-02-07 06:35:00
12:55 AM,36.1,32.4,86,29.99,10.0,SE,10.4,-,N/A,,Overcast,140,2013-02-07 06:55:00
1:15 AM,36.0,32.5,87,29.99,10.0,SE,9.2,-,N/A,,Overcast,140,2013-02-07 07:15:00
1:35 AM,35.8,32.7,89,30.01,10.0,SE,6.9,-,N/A,,Overcast,140,2013-02-07 07:35:00
1:55 AM,36.1,32.5,87,30.01,10.0,SSE,3.5,-,N/A,,Overcast,150,2013-02-07 07:55:00
2:15 AM,36.0,32.9,89,30.01,5.0,East,3.5,-,N/A,Rain,Light Rain,80,2013-02-07 08:15:00
2:35 AM,35.2,33.1,92,30.01,7.0,SE,6.9,-,N/A,,Overcast,130,2013-02-07 08:35:00
2:55 AM,34.9,33.8,96,30.00,3.0,SE,5.8,-,0.01,Rain,Rain,130,2013-02-07 08:55:00
3:15 AM,35.1,33.8,95,30.00,5.0,SE,6.9,-,N/A,Rain,Light Rain,140,2013-02-07 09:15:00
3:35 AM,35.2,33.4,93,29.99,7.0,SE,6.9,-,N/A,,Overcast,140,2013-02-07 09:35:00
3:55 AM,35.6,33.1,91,29.98,7.0,SE,8.1,-,N/A,,Overcast,130,2013-02-07 09:55:00
4:15 AM,35.6,32.9,90,29.98,7.0,ESE,5.8,-,N/A,,Overcast,120,2013-02-07 10:15:00
4:35 AM,35.6,32.9,90,29.97,7.0,SE,6.9,-,N/A,,Overcast,130,2013-02-07 10:35:00
4:55 AM,35.6,33.1,91,29.97,7.0,SE,5.8,-,N/A,,Overcast,140,2013-02-07 10:55:00
5:15 AM,35.1,33.1,92,29.97,7.0,SSE,8.1,-,N/A,,Overcast,150,2013-02-07 11:15:00
5:35 AM,35.2,32.9,91,29.97,7.0,SSE,8.1,-,N/A,,Drizzle,150,2013-02-07 11:35:00
5:55 AM,35.2,33.1,92,29.96,5.0,SE,6.9,-,N/A,Rain,Light Rain,130,2013-02-07 11:55:00
6:15 AM,35.1,33.8,95,29.96,5.0,SE,5.8,-,N/A,Rain,Rain,140,2013-02-07 12:15:00
6:35 AM,35.1,34.0,96,29.96,3.0,SE,4.6,-,0.01,Rain,Rain,140,2013-02-07 12:35:00
6:55 AM,34.7,33.8,97,29.95,2.5,SE,5.8,-,0.05,Rain,Rain,140,2013-02-07 12:55:00
7:15 AM,34.7,33.8,97,29.95,3.0,SE,5.8,-,0.02,Rain,Rain,140,2013-02-07 13:15:00
7:35 AM,34.7,33.8,97,29.95,2.5,SE,6.9,-,0.04,Rain,Light Rain,130,2013-02-07 13:35:00
7:55 AM,34.9,34.0,97,29.95,3.0,SE,5.8,-,0.05,Rain,Light Rain,130,2013-02-07 13:55:00
8:15 AM,35.1,34.0,96,29.96,3.0,SE,5.8,-,N/A,Rain,Light Rain,140,2013-02-07 14:15:00
8:35 AM,35.2,34.2,96,29.95,3.0,SE,5.8,-,N/A,,Drizzle,140,2013-02-07 14:35:00
8:55 AM,35.2,34.3,97,29.95,2.5,SE,5.8,-,N/A,,Drizzle,140,2013-02-07 14:55:00
9:15 AM,34.9,34.2,97,29.95,2.0,SE,6.9,-,0.01,Rain,Light Rain,140,2013-02-07 15:15:00
9:35 AM,35.1,34.7,99,29.94,1.8,SE,5.8,-,0.02,Rain,Light Rain,140,2013-02-07 15:35:00
9:55 AM,35.1,34.5,98,29.94,1.8,SSE,8.1,-,0.03,Rain,Light Rain,150,2013-02-07 15:55:00
10:15 AM,34.9,34.7,99,29.94,1.5,SE,3.5,-,0.01,Rain,Light Rain,140,2013-02-07 16:15:00
10:35 AM,35.2,34.9,99,29.93,1.2,SE,4.6,-,0.03,Rain,Light Rain,140,2013-02-07 16:35:00
10:55 AM,35.2,34.9,99,29.94,1.5,SSE,5.8,-,0.04,Rain,Rain,150,2013-02-07 16:55:00
11:15 AM,35.2,35.1,99,29.93,1.2,Calm,Calm,-,0.02,Rain,Rain,0,2013-02-07 17:15:00
11:35 AM,35.6,35.2,99,29.93,1.0,SSE,3.5,-,0.07,Rain,Rain,160,2013-02-07 17:35:00
11:55 AM,35.6,35.2,99,29.91,1.0,Calm,Calm,-,0.12,Rain,Rain,0,2013-02-07 17:55:00
12:15 PM,35.6,35.2,99,29.91,1.0,SSE,3.5,-,0.04,Rain,Rain,160,2013-02-07 18:15:00
12:35 PM,35.6,35.6,100,29.90,1.0,SSE,3.5,-,0.08,Rain,Rain,160,2013-02-07 18:35:00
12:55 PM,35.8,35.6,99,29.88,1.0,Calm,Calm,-,0.12,Rain,Rain,0,2013-02-07 18:55:00
1:15 PM,35.8,35.6,99,29.89,1.2,South,3.5,-,0.02,Rain,Rain,180,2013-02-07 19:15:00
1:35 PM,35.8,35.6,99,29.88,1.2,Calm,Calm,-,0.05,Rain,Rain,0,2013-02-07 19:35:00
1:55 PM,36.0,35.6,99,29.87,1.8,Calm,Calm,-,0.07,Rain,Light Rain,0,2013-02-07 19:55:00
2:15 PM,35.8,35.6,99,29.86,2.0,Calm,Calm,-,0.02,Rain,Rain,0,2013-02-07 20:15:00
2:35 PM,36.0,35.8,99,29.87,1.5,WNW,3.5,-,0.04,Rain,Rain,290,2013-02-07 20:35:00
2:55 PM,36.0,35.8,99,29.86,1.8,Calm,Calm,-,0.05,Rain,Light Rain,0,2013-02-07 20:55:00
3:15 PM,36.1,36.0,99,29.86,2.5,Calm,Calm,-,N/A,Rain,Light Rain,0,2013-02-07 21:15:00
3:35 PM,36.5,36.1,99,29.86,2.5,NW,3.5,-,0.02,Rain,Light Rain,320,2013-02-07 21:35:00
3:55 PM,36.5,36.5,100,29.86,3.0,NW,3.5,-,0.02,Rain,Rain,310,2013-02-07 21:55:00
4:15 PM,36.5,36.5,100,29.87,3.0,WNW,4.6,-,N/A,,Drizzle,290,2013-02-07 22:15:00
4:35 PM,36.1,36.0,99,29.89,3.0,WNW,8.1,-,N/A,,Drizzle,300,2013-02-07 22:35:00
4:55 PM,36.0,35.8,99,29.89,1.8,NW,6.9,-,N/A,Rain,Rain,310,2013-02-07 22:55:00
5:15 PM,35.6,35.6,100,29.89,2.0,NW,5.8,-,N/A,,Light Drizzle,310,2013-02-07 23:15:00
5:35 PM,36.0,36.0,100,29.90,1.8,NW,6.9,-,N/A,,Light Drizzle,310,2013-02-07 23:35:00
5:55 PM,36.1,36.1,100,29.91,3.0,NW,8.1,-,N/A,,Light Drizzle,310,2013-02-07 23:55:00
6:15 PM,36.1,36.1,100,29.93,5.0,NW,8.1,-,N/A,,Overcast,310,2013-02-08 00:15:00
6:35 PM,35.8,35.6,99,29.95,7.0,NW,9.2,-,N/A,,Overcast,310,2013-02-08 00:35:00
6:55 PM,35.4,35.1,99,29.95,7.0,NW,11.5,-,N/A,,Light Drizzle,310,2013-02-08 00:55:00
7:15 PM,35.1,34.7,99,29.96,7.0,WNW,10.4,-,N/A,,Overcast,300,2013-02-08 01:15:00
7:35 PM,34.7,34.2,98,29.97,10.0,NW,13.8,21.9,N/A,Rain,Light Rain,310,2013-02-08 01:35:00
7:55 PM,34.7,34.0,97,29.97,7.0,NW,16.1,-,N/A,,Overcast,320,2013-02-08 01:55:00
8:15 PM,34.5,34.0,98,29.98,7.0,NW,11.5,-,N/A,,Overcast,320,2013-02-08 02:15:00
8:35 PM,34.5,33.8,97,29.99,7.0,NW,13.8,19.6,N/A,,Overcast,320,2013-02-08 02:35:00
8:55 PM,34.3,33.4,97,30.00,10.0,NW,13.8,19.6,N/A,,Overcast,320,2013-02-08 02:55:00
9:15 PM,34.2,33.3,97,30.01,10.0,NW,11.5,17.3,N/A,,Overcast,320,2013-02-08 03:15:00
9:35 PM,34.0,32.9,96,30.01,10.0,NW,11.5,-,N/A,,Overcast,320,2013-02-08 03:35:00
9:55 PM,33.8,32.9,96,30.02,10.0,NW,11.5,17.3,N/A,,Overcast,320,2013-02-08 03:55:00
10:15 PM,33.8,32.9,96,30.02,7.0,NW,10.4,-,N/A,,Overcast,310,2013-02-08 04:15:00
10:35 PM,33.4,32.0,94,30.03,5.0,NW,10.4,17.3,N/A,,Overcast,320,2013-02-08 04:35:00
10:55 PM,33.1,32.4,97,30.03,3.0,NW,12.7,17.3,N/A,,Overcast,310,2013-02-08 04:55:00
11:15 PM,32.5,32.0,98,30.04,3.0,NW,12.7,17.3,N/A,,Overcast,320,2013-02-08 05:15:00
11:35 PM,32.4,31.3,96,30.05,4.0,NW,13.8,21.9,N/A,,Overcast,320,2013-02-08 05:35:00
11:55 PM,32.0,30.7,95,30.05,5.0,NW,12.7,-,N/A,,Overcast,320,2013-02-08 05:55:00